Location: ??????????
(41.2770°N, 22.7864°E)
Time: 13:49:40
(UTC+00:00)

Daily predictions for brighter satellites

Satellite Brightness Start Highest point End
(mag) Time Altitude Azimuth Time Altitude Azimuth Time Altitude Azimuth
COSMOS 2406 4.4 18:31:43 10° SSE 18:36:02 22° E 18:40:20 10° NE
Resurs 01 Rocket 2.0 18:34:01 10° SE 18:38:16 48° ENE 18:42:34 10° N
Cosmos 1833 Rocket 3.1 18:36:33 10° S 18:41:47 43° ESE 18:47:04 10° NE
H-2A R/B 2.1 18:46:36 10° NNE 18:51:05 77° ESE 18:55:35 10° S
Cosmos 676 Rocket 4.4 18:46:55 10° NNW 18:52:11 67° WSW 18:57:21 10° S
Cosmos 1536 Rocket 3.9 18:48:34 10° SSE 18:52:41 46° E 18:56:52 10° NNE
Okean-O 4.3 18:49:32 10° SSW 18:53:30 32° W 18:57:29 10° NNW
Cosmos 1703 3.9 18:52:18 10° SSE 18:55:48 35° E 18:59:20 10° NNE
CARTOSAT-1 4.4 18:52:10 10° SE 18:56:03 35° ENE 18:59:59 10° N
Ariane Rocket 3.3 18:52:01 10° SSE 18:56:59 55° ENE 19:01:57 10° N
IRS-1A Rocket 4.4 18:54:30 10° SSE 19:00:24 79° ENE 19:06:17 10° NNW
ATLAS 2AS CENTAUR R/B 3.2 18:55:44 10° NW 19:02:35 58° WSW 19:08:57 10° SSE
ASTRO E2 4.5 19:01:41 10° SSW 19:03:51 14° SSE 19:04:55 13° SSE
PSLV R/B 4.1 19:03:05 10° N 19:07:15 78° WNW 19:11:25 10° SSW
SPOT 3 Rocket 4.1 19:03:41 12° SE 19:08:10 45° ENE 19:13:08 10° N
Terra 3.5 19:05:11 10° ESE 19:08:23 19° ENE 19:11:44 10° NNE
SPOT 5 3.9 19:07:44 13° ESE 19:10:40 26° ENE 19:14:16 10° NNE
SL-24 R/B 4.3 19:07:33 11° SSE 19:11:43 71° ENE 19:16:43 10° N
CZ-4B R/B 1.1 19:12:20 10° N 19:15:13 78° WNW 19:18:07 10° SSW
Cosmos 1544 Rocket 4.1 19:13:05 10° NNW 19:17:21 57° W 19:21:37 10° S
RESURS DK-1 2.3 19:13:45 10° NNW 19:17:54 85° ENE 19:21:02 17° SSE
Cosmos 2082 Rocket 2.8 19:14:42 10° S 19:19:51 36° ESE 19:25:00 10° NE
Cosmos 1331 Rocket 4.0 19:15:10 10° S 19:20:27 75° ESE 19:25:45 10° NNE
Cosmos 1850 Rocket 4.0 19:15:21 10° NNW 19:20:34 83° ENE 19:24:51 15° SSE
Cosmos 2074 Rocket 4.0 19:14:50 10° N 19:21:05 69° E 19:26:38 13° SSE
Cosmos 1271 Rocket 3.8 19:17:30 10° NNW 19:21:17 44° W 19:24:59 10° SSW
Cosmos 1455 3.1 19:18:11 10° NNW 19:21:52 47° W 19:25:32 10° SSW
IRAS Rocket 4.2 19:16:38 10° NNE 19:22:14 74° ESE 19:27:45 10° S
Cosmos 2360 4.4 19:20:07 10° NNW 19:25:48 61° ENE 19:29:57 19° SE
Spot 2 Rocket 4.1 19:23:51 18° SE 19:27:22 44° ENE 19:32:11 10° N
Nadezhda 1 Rocket 4.1 19:22:07 11° SSE 19:27:50 54° E 19:33:43 10° NNE
Helios 1A Rocket 3.7 19:28:47 20° SE 19:31:01 36° ENE 19:34:46 10° N
Cosmos 1328 4.3 19:29:37 21° SSE 19:31:50 40° E 19:35:35 10° NNE
GEOS 3 Rocket 3.6 19:28:10 18° SSE 19:32:02 76° SW 19:37:11 10° NW
Cosmos 2084 Rocket 3.8 19:31:21 10° NNW 19:35:09 47° NE 19:37:25 22° ESE
Lacrosse 5 3.8 19:32:04 10° WNW 19:35:50 21° WSW 19:39:34 10° SSW
SPOT 1/Viking Rocket 4.2 19:31:39 10° S 19:36:40 52° W 19:41:42 10° NNW
Cosmos 1900 4.4 19:31:30 10° NNW 19:36:40 76° ENE 19:39:54 23° SE
Delta 2 Rocket 3.7 19:37:36 10° WSW 19:40:32 28° S 19:40:58 27° S
ERS-1 Rocket 3.2 19:42:07 23° SE 19:45:06 55° ENE 19:50:01 10° N
Meteor 1-21 Rocket 4.2 19:41:12 10° S 19:46:47 88° E 19:52:31 10° N
ATLAS 5 CENTAUR R/B 4.0 19:40:30 10° NW 19:48:20 29° WSW 19:51:22 12° SSW
Cosmos 1610 Rocket 4.5 19:45:05 10° N 19:51:21 74° E 19:55:37 22° SSE
Cosmos 1892 3.8 19:51:38 26° ESE 19:52:02 26° E 19:55:14 10° NNE
Cosmos 1302 Rocket 3.9 19:47:40 12° S 19:52:30 69° ESE 19:57:40 10° NNE
X-37B 0.1 19:51:06 10° WNW 19:53:55 74° SSW 19:54:15 62° SE
Cosmos 2154 Rocket 3.9 19:49:08 10° N 19:55:23 88° E 19:59:44 21° S
Cosmos 192 4.3 19:52:08 10° SSW 19:57:01 90° SE 20:01:57 10° NNE
SL-8 R/B 3.9 19:54:36 10° WNW 19:59:20 59° SW 20:01:22 32° SSE
Cosmos 2228 3.3 19:55:52 10° NNW 20:00:03 61° W 20:02:34 23° SSW
Cosmos 1892 Rocket 3.6 20:00:53 31° SSE 20:02:49 62° E 20:07:08 10° NNE
Cosmos 968 Rocket 3.6 19:58:56 10° NNW 20:04:07 61° ENE 20:06:30 31° SE
Cosmos 1697 Rocket 2.9 19:59:18 10° NNW 20:04:51 64° WSW 20:08:06 25° S
Cosmos 1980 Rocket 2.3 19:59:54 10° NNW 20:05:35 66° ENE 20:08:21 30° SE
SL-16 R/B 4.0 20:03:39 10° N 20:07:49 20° NE 20:11:07 13° E
USA 267 3.8 20:04:13 10° ENE 20:10:02 33° SE 20:12:17 27° SSE
ATLAS 5 CENTAUR R/B 1.1 20:09:30 45° S 20:10:19 57° ESE 20:14:13 10° NE
SL-8 Rocket 4.5 20:04:46 10° N 20:10:42 45° ENE 20:13:23 29° SE
Cosmos 2369 3.7 20:08:06 10° NNW 20:13:52 85° ENE 20:16:35 33° SSE
Cosmos 2058 Rocket 3.4 20:10:32 10° N 20:14:52 51° E 20:16:04 39° SE
Resurs 01 Rocket 4.2 20:12:21 10° SW 20:15:00 16° W 20:17:42 10° NW
Cosmos 1408 2.3 20:14:47 60° SE 20:15:07 64° E 20:18:33 10° NNE
CZ-2C R/B 3.7 20:13:31 10° N 20:18:04 80° WNW 20:20:34 26° SSW
Meteor 2-1 Rocket 4.4 20:13:39 10° NNW 20:19:07 66° W 20:22:19 26° S
In-Cosmos 22 Rocket 4.4 20:17:20 34° SE 20:19:18 49° E 20:24:31 10° NNE
COSMOS 2406 4.0 20:14:17 10° SW 20:19:53 53° WNW 20:25:32 10° NNE
Cosmos 2344 4.4 20:10:36 10° NW 20:19:57 88° ENE 20:28:17 26° SE
SJ 16-02 3.6 20:22:54 10° NNE 20:25:13 14° ENE 20:26:38 12° ENE
Cosmos 2366 rocket 4.3 20:24:53 10° N 20:31:07 55° E 20:33:34 35° SE
Cosmos 1867 3.5 20:27:16 10° NNW 20:32:46 89° WSW 20:34:38 43° SSE
Cosmos 1825 2.6 20:33:23 45° E 20:33:23 45° E 20:36:45 10° NNE
Cosmos 2218 Rocket 4.2 20:31:09 10° N 20:37:31 62° E 20:39:56 38° SE
Cosmos 2322 Rocket 3.7 20:37:23 10° N 20:42:07 26° NE 20:44:41 19° E
Cosmos 1869 3.7 20:39:09 10° N 20:42:57 47° E 20:42:59 47° E
Meteor 1-27 4.3 20:38:00 10° N 20:43:32 63° ENE 20:45:09 44° SE
ARIANE 5 R/B 2.8 20:44:14 46° SSW 20:45:19 63° WSW 20:49:44 10° NNW
Terra 2.5 20:44:04 33° SSW 20:45:46 47° W 20:50:23 10° NNW
Cosmos 1959 Rocket 4.4 20:41:40 10° N 20:47:47 70° E 20:49:51 43° SSE
GP-B 3.0 20:43:48 10° N 20:48:16 87° E 20:49:01 62° S
SPOT 5 4.2 20:46:57 21° SW 20:48:42 27° W 20:52:23 10° NW
SAR-Lupe-4 3.6 20:52:00 10° NNE 20:55:18 74° NNE 20:55:18 74° NNE
Cosmos 2278 3.6 20:50:04 10° NNW 20:55:49 85° WSW 20:57:25 50° SSE
Cosmos 2341 Rocket 4.2 20:50:25 10° NNW 20:56:40 67° W 20:59:17 36° SSW
USA 276 3.7 20:54:14 10° NW 20:56:54 30° NNE 20:56:54 30° NNE
Cosmos 864 Rocket 4.4 20:51:36 10° N 20:57:50 85° E 20:59:56 45° SSE
FALCON 9 DEB 3.9 20:55:17 10° NW 20:58:00 47° N 20:58:00 47° N
Cosmos 1992 Rocket 4.2 20:57:38 31° SW 21:00:08 67° WNW 21:05:22 10° NNE
Cosmos 2333 Rocket 4.4 20:58:51 10° N 21:02:29 17° NE 21:06:05 10° E
Cosmos 2082 Rocket 3.7 20:58:46 10° WSW 21:03:54 34° WNW 21:09:04 10° N
Cosmos 1633 3.5 21:05:14 37° NE 21:05:14 37° NE 21:07:36 10° NNE
Okean 1-7 Rocket 3.7 21:03:33 58° SW 21:04:18 72° W 21:08:48 10° N
Cosmos 1758 Rocket 4.0 21:05:17 46° E 21:05:17 46° E 21:09:13 10° NNE
Cosmos 1486 Rocket 3.9 21:03:34 10° NNW 21:08:48 82° WSW 21:09:45 60° S
ADEOS Rocket 4.3 21:06:17 28° ESE 21:09:36 42° ENE 21:16:43 10° N
ASTEX 1 3.8 21:05:14 10° N 21:10:09 58° W 21:11:40 40° SW
Gbstr 26 Del rocket 3.4 21:16:36 49° ENE 21:16:36 49° ENE 21:20:12 10° ENE
Cosmos 2360 Rocket 3.5 21:11:43 10° N 21:16:45 31° ENE 21:18:47 25° E
Cosmos-2242 3.4 21:14:27 10° N 21:18:22 51° ENE 21:18:22 51° ENE
Cosmos 1812 Rocket 3.6 21:14:35 10° N 21:19:01 69° ENE 21:19:01 69° ENE
Cosmos 2181 Rocket 4.4 21:17:08 31° SW 21:19:59 56° W 21:26:08 10° N
Cosmos 1606 3.9 21:16:31 10° N 21:19:29 33° NE 21:19:29 33° NE
Cosmos 1821 Rocket 4.0 21:19:10 10° N 21:25:22 69° E 21:26:44 53° SE
Cosmos 1602 Rocket 3.6 21:28:29 69° W 21:28:31 69° W 21:32:50 10° N
CENTAUR R/B 4.2 21:35:23 15° E 21:35:23 15° E 21:37:58 10° ENE
Cosmos 44 4.0 21:35:47 39° ENE 21:35:47 39° ENE 21:38:57 10° NE
Cosmos 1354 Rocket 3.8 21:33:23 10° NNW 21:38:42 88° ENE 21:39:12 74° SSE
Cosmos 2237 4.3 21:33:45 10° NNW 21:39:30 71° ENE 21:40:30 58° ESE
Spot 4 3.7 21:42:42 84° SSW 21:42:50 87° WSW 21:47:39 10° NNW
ALOS 2 2.9 21:44:13 59° ENE 21:44:13 59° ENE 21:48:21 10° N
Nadezhda 3 Rocket 3.8 21:43:20 59° S 21:44:38 89° E 21:50:50 10° N
Cosmos 1503 Rocket 4.0 21:42:00 10° NNW 21:47:13 63° WSW 21:47:32 61° SW
Cosmos 1980 Rocket 4.1 21:45:23 10° WNW 21:48:56 17° W 21:50:07 16° WSW
ERS-2 4.1 21:46:59 10° NE 21:48:35 21° NE 21:48:35 21° NE
SL-16 R/B 2.2 21:46:48 10° NNW 21:52:26 66° WSW 21:52:57 62° SW
Cosmos 1777 Rocket 3.9 21:47:12 10° NNW 21:52:30 76° ENE 21:52:54 72° ESE
Cosmos 2219 Rocket 3.8 21:47:44 10° N 21:52:31 27° NE 21:55:00 20° E
Cosmos 2058 3.3 21:53:50 62° NNE 21:53:50 62° NNE 21:57:22 10° N
USA 267 3.4 21:46:48 10° NE 21:53:18 70° NW 21:59:31 11° WSW
ATLAS 5 CENTAUR R/B 4.1 21:52:56 10° WNW 21:55:18 15° NW 21:57:50 10° N
Cosmos 1953 Rocket 4.0 21:55:55 53° ENE 21:55:55 53° ENE 21:59:40 10° NNE
H-2A R/B 3.7 21:52:44 10° NNE 21:56:24 67° N 21:56:24 67° N
Meteor 2-2 Rocket 4.3 21:54:19 10° N 22:00:22 74° E 22:01:20 62° SE
Cosmos 1825 Rocket 3.8 22:04:05 63° NW 22:04:05 63° NW 22:08:00 10° N
SJ 16-02 1.8 21:59:48 10° NNW 22:03:35 54° WNW 22:03:35 54° WNW
SL-4 R/B 3.3 22:04:44 32° NNW 22:04:52 32° NNW 22:08:11 10° NE
Cosmos 2221 3.1 22:11:37 10° N 22:15:26 50° NE 22:15:26 50° NE
PSLV R/B 4.2 22:13:42 10° NNE 22:17:51 51° ENE 22:17:51 51° ENE
Nimbus 7 Rocket 4.4 22:17:11 10° NNE 22:23:06 64° ESE 22:23:46 60° SE
USA 234 3.5 22:22:04 27° ESE 22:25:48 69° NE 22:32:19 10° NW
Cosmos 2322 Rocket 2.6 22:20:57 10° NW 22:26:23 48° WSW 22:26:28 48° WSW
Cosmos 1842 Rocket 4.1 22:24:18 10° N 22:28:19 52° ENE 22:28:19 52° ENE
CRYOSAT 2 4.3 22:29:27 80° ENE 22:29:27 80° ENE 22:34:16 10° N
Cosmos 1934 Rocket 3.9 22:27:48 10° NNW 22:33:53 70° W 22:34:46 61° SW
Cosmos 1763 Rocket 3.4 22:41:35 76° ESE 22:41:35 76° ESE 22:46:53 10° NNE
Resurs 1-4 Rocket 4.2 22:44:15 10° ENE 22:47:03 14° E 22:48:00 14° ESE
Cosmos 2333 Rocket 2.1 22:41:44 10° NNW 22:47:32 86° WSW 22:48:05 74° S
Cosmos 1933 4.1 22:45:58 10° N 22:49:07 50° NNE 22:49:07 50° NNE
USA 290 4.5 22:47:07 10° N 22:48:53 25° NNE 22:48:53 25° NNE
Cosmos 841 Rocket 4.3 22:53:16 37° E 22:53:16 37° E 22:57:54 10° NE
ADEOS Rocket 4.0 22:53:14 37° SW 22:54:55 42° W 23:02:10 10° NNW
Cosmos 1812 3.9 22:51:35 10° N 22:54:29 37° NE 22:54:29 37° NE
Cosmos 990 Rocket 3.8 22:52:03 10° NNW 22:57:13 81° ENE 22:57:26 78° ESE
Cosmos 972 4.4 22:52:25 10° NNW 22:57:32 87° ENE 22:57:54 78° SSE
Cosmos 1727 Rocket 4.0 22:58:59 59° SSE 23:00:10 75° E 23:06:27 10° N
ISS -1.7 23:00:48 27° N 23:00:48 27° N 23:03:18 10° NE
Cosmos 2360 Rocket 2.9 22:55:34 10° NW 23:00:31 39° W 23:00:31 39° W
Cosmos 2227 Rocket 4.0 23:00:37 17° ESE 23:01:18 17° E 23:04:53 10° ENE
CZ-2D R/B 3.9 22:58:48 10° NE 23:02:26 19° E 23:03:21 18° ESE
Meteor 2-3 Rocket 3.6 23:04:49 67° SW 23:05:25 73° W 23:11:00 10° N
Cosmos 1076 Rocket 3.9 23:09:44 56° NW 23:09:44 56° NW 23:13:35 10° N
Cosmos 540 Rocket 3.3 23:10:08 81° SE 23:10:17 82° ESE 23:15:27 10° NNE
Cosmos 2333 4.4 23:04:55 10° NNW 23:10:33 55° WSW 23:10:38 55° WSW
Thor Agena Rocket 4.4 23:06:00 10° NNE 23:10:44 36° E 23:11:09 36° ESE
Cosmos 468 Rocket 4.0 23:10:37 64° WSW 23:11:05 68° WNW 23:16:24 10° NNE
SL-16 R/B 4.4 23:07:38 10° ESE 23:12:30 25° ENE 23:17:22 10° N
ADEOS II 4.4 23:10:54 10° ENE 23:13:08 13° E 23:14:55 11° ESE
BREEZE-M DEB (TANK) 4.3 23:12:25 28° NW 23:13:30 36° N 23:19:44 10° ENE
NOSS 3-2 (A) 3.1 23:13:40 66° SW 23:14:29 83° NW 23:20:43 10° NE
Cosmos 1862 4.0 23:21:22 48° NE 23:21:22 48° NE 23:24:34 10° NNE
Cosmos 2100 Rocket 4.2 23:16:20 10° N 23:22:41 68° E 23:24:35 46° SE
ERS-2 4.4 23:21:00 10° NNW 23:22:56 16° WNW 23:22:56 16° WNW
Cosmos 1782 3.6 23:19:23 10° NNW 23:22:20 44° NW 23:22:20 44° NW
CENTAUR R/B 2.4 23:22:31 56° SW 23:23:51 79° NW 23:30:46 10° NNE
Timation 1 Rocket 4.3 23:23:19 62° S 23:24:16 74° ESE 23:30:17 10° NNE
Cosmos 2173 Rocket 4.2 23:18:44 10° N 23:25:06 67° E 23:27:07 44° SE
Cosmos 2237 Rocket 3.4 23:22:14 10° N 23:27:30 38° ENE 23:31:24 17° ESE
Cosmos 2297 Rocket 2.6 23:29:19 44° SE 23:30:04 47° ESE 23:35:28 10° NE
Cosmos 2151 3.7 23:31:03 43° WNW 23:31:03 43° WNW 23:34:49 10° N
COSMOS 2428 2.6 23:28:12 10° NNW 23:33:54 73° WSW 23:34:37 64° SSW
Cosmos 2219 4.4 23:33:09 27° ESE 23:34:16 29° ESE 23:39:00 10° NE
Cosmos 2219 Rocket 2.5 23:31:15 10° NW 23:36:40 47° WSW 23:36:40 47° WSW
Cosmos 2016 Rocket 4.4 23:34:35 10° N 23:40:34 56° E 23:43:07 34° SE
Cosmos 2322 4.2 23:40:28 10° NW 23:45:45 42° WSW 23:45:45 42° WSW
Cosmos 1898 Rocket 3.6 23:41:57 10° NNW 23:47:00 55° WSW 23:47:02 55° WSW
Cosmos 1151 Rocket 3.3 23:43:38 10° N 23:47:59 62° E 23:48:25 58° ESE
CZ-4 R/B 4.5 23:47:06 10° NNE 23:51:53 48° E 23:52:53 42° SE
Cosmos 1937 Rocket 3.3 23:47:03 10° NNW 23:52:15 70° WSW 23:52:46 64° SW
